Погода в Талине

Армения     40°23′03″N   43°52′24″E
темп.,
°C
ветер,
м/с
пор.,
м/с
влажн.,
%
обл.,
%
осадки,
мм/ч
давл.,
гПа
погр.,
м
21 апреля, ср
ср2101:00+12вюв117092 0.3 101622
04:00+10всв1273100 0.3 101622
07:00+11юв2372100 0.1 101655
10:00+17ююв81147100 0.3 10141002
13:00+21ю8133555 0.0 10122364
16:00+23юз11152734 0.1 10103113
19:00+19ю6113899 0.1 1011479
22:00+14ююв4962100 0.6 1015191
22 апреля, чт
чт2201:00+13ююв4963100 0.1 1015192
04:00+13ююв486291 0.2 1015138
07:00+13ююв49620 0.0 1015193
10:00+18ю710415 0.0 10141312
13:00+22ю8162821 0.0 10114023
16:00+23юз10161896 0.0 10093921
19:00+19юз69227 0.0 1010305
22:00+13юв22300 0.0 101218
23 апреля, пт
пт2301:00+11с22330 0.0 101413
04:00+7ссз46690 0.0 1017157
07:00+7ссз48671 0.0 1019274
10:00+12ссз55481 0.0 1019933
13:00+16сз36270 0.0 10172149
16:00+19з47155 0.0 10143339
19:00+17ссз45233 0.0 1014175
22:00+12ссв2227100 0.0 101619
24 апреля, сб
сб2401:00+9с34510 0.0 101766
04:00+7с33705 0.0 101870
07:00+7с23705 0.0 1018104
10:00+14ссз11430 0.0 1017546
13:00+18ю34255 0.0 10141862
16:00+21ююв57227 0.0 10122151
19:00+19юв463092 0.0 1012205
22:00+13ссв34457 0.0 101668
25 апреля, вс
вс2501:00+10с34644 0.0 1017104
04:00+9с23655 0.0 101753
07:00+9с2364100 0.0 101765
10:00+16ю35375 0.0 1015685
13:00+20ю79265 0.0 10131910
16:00+23ююз7101815 0.0 10093481
19:00+21ююз6102998 0.0 1009362
22:00+16ю473994 0.2 101197